Location: Catacaguana
(10.4120°N, 66.7591°W)
Time: 15:58:56
(UTC+00:00)

Cosmos 1503 Rocket - Visible Passes

Search period start: 04 October 2022 00:00
Search period end: 14 October 2022 00:00
Orbit: 752 x 790 km, 74.0° (Epoch: 03 October)

Date Brightness Start Highest point End Pass type
(mag) Time Alt. Az. Time Alt. Az. Time Alt. Az.
04 Oct 4.0 00:00:01 10° SSW 00:04:35 70° SSW 00:04:35 70° SSW visible
04 Oct 4.1 23:24:15 10° S 23:29:11 47° E 23:31:37 27° NE visible
05 Oct 5.0 22:49:08 10° SSE 22:53:11 23° E 22:57:12 10° NE visible
06 Oct 6.3 00:31:18 10° WSW 00:35:02 20° WNW 00:38:46 10° NNW visible
06 Oct 5.2 23:54:09 10° SW 23:58:56 39° WNW 00:03:44 10° N visible
07 Oct 4.0 23:17:43 10° SSW 23:22:52 81° WNW 23:28:01 10° N visible
08 Oct 4.1 22:41:53 10° S 22:46:51 50° ESE 22:51:49 10° NNE visible
09 Oct 7.0 09:28:54 10° NE 09:31:56 15° ENE 09:34:57 10° ESE visible
09 Oct 6.6 23:49:10 10° WSW 23:52:44 19° WNW 23:56:18 10° NNW visible
10 Oct 5.5 23:11:53 10° SW 23:16:37 37° WNW 23:21:20 10° N visible
11 Oct 4.2 22:35:25 10° SSW 22:40:33 75° WNW 22:45:42 10° N visible
12 Oct 6.0 09:21:03 10° NNE 09:25:44 31° ENE 09:30:27 10° SE visible
13 Oct 6.9 08:46:22 10° NE 08:49:38 16° ENE 08:52:53 10° ESE visible
13 Oct 6.8 23:07:01 10° WSW 23:10:24 18° WNW 23:13:48 10° NNW visible
